TimeEDT,TemperatureF,Dew PointF,Humidity,Sea Level PressureIn,VisibilityMPH,Wind Direction,Wind SpeedMPH,Gust SpeedMPH,PrecipitationIn,Events,Conditions,WindDirDegrees,DateUTC
12:53 AM,62.1,57.9,86,29.99,10.0,South,3.5,-,N/A,,Partly Cloudy,180,2013-03-23 04:53:00
1:53 AM,60.1,55.9,86,29.98,10.0,Calm,Calm,-,N/A,,Clear,0,2013-03-23 05:53:00
2:53 AM,61.0,57.9,90,29.97,10.0,Calm,Calm,-,N/A,,Partly Cloudy,0,2013-03-23 06:53:00
3:53 AM,59.0,55.9,90,29.95,10.0,Calm,Calm,-,N/A,,Clear,0,2013-03-23 07:53:00
4:53 AM,59.0,57.0,93,29.94,7.0,Calm,Calm,-,N/A,,Mostly Cloudy,0,2013-03-23 08:53:00
5:53 AM,59.0,57.0,93,29.94,9.0,Calm,Calm,-,N/A,,Mostly Cloudy,0,2013-03-23 09:53:00
6:53 AM,61.0,59.0,93,29.95,10.0,Calm,Calm,-,N/A,,Overcast,0,2013-03-23 10:53:00
7:53 AM,64.0,62.1,93,29.94,8.0,South,3.5,-,N/A,,Mostly Cloudy,170,2013-03-23 11:53:00
8:36 AM,66.2,64.4,94,29.95,10.0,SSE,4.6,-,N/A,,Mostly Cloudy,160,2013-03-23 12:36:00
8:45 AM,66.2,64.4,94,29.95,10.0,SSE,4.6,-,N/A,,Mostly Cloudy,150,2013-03-23 12:45:00
8:53 AM,66.9,64.0,90,29.94,10.0,South,6.9,-,N/A,,Mostly Cloudy,170,2013-03-23 12:53:00
9:02 AM,68.0,64.4,88,29.94,10.0,South,8.1,-,N/A,,Mostly Cloudy,170,2013-03-23 13:02:00
9:53 AM,72.0,66.0,81,29.93,10.0,South,8.1,-,0.00,Rain,Light Rain,180,2013-03-23 13:53:00
10:53 AM,73.0,68.0,84,29.92,10.0,SSW,4.6,-,0.01,,Mostly Cloudy,200,2013-03-23 14:53:00
11:17 AM,75.2,68.0,78,29.92,10.0,South,9.2,-,N/A,,Mostly Cloudy,180,2013-03-23 15:17:00
11:53 AM,79.0,68.0,69,29.91,10.0,South,8.1,-,N/A,,Mostly Cloudy,190,2013-03-23 15:53:00
12:53 PM,81.0,66.9,62,29.89,10.0,SW,10.4,18.4,N/A,,Mostly Cloudy,230,2013-03-23 16:53:00
1:53 PM,82.0,69.1,65,29.87,10.0,SW,11.5,-,0.01,,Mostly Cloudy,220,2013-03-23 17:53:00
2:53 PM,84.9,66.9,55,29.82,10.0,WSW,10.4,-,0.00,,Mostly Cloudy,250,2013-03-23 18:53:00
3:53 PM,82.9,69.1,63,29.78,10.0,SSW,10.4,-,N/A,,Mostly Cloudy,210,2013-03-23 19:53:00
4:53 PM,84.0,64.0,51,29.80,10.0,West,18.4,26.5,N/A,,Mostly Cloudy,270,2013-03-23 20:53:00
5:00 PM,77.0,62.6,61,29.81,10.0,NNE,13.8,26.5,N/A,,Scattered Clouds,30,2013-03-23 21:00:00
5:07 PM,73.4,62.6,69,29.81,10.0,NNE,19.6,26.5,N/A,,Mostly Cloudy,20,2013-03-23 21:07:00
5:53 PM,69.1,63.0,81,29.82,10.0,NNE,10.4,-,N/A,,Mostly Cloudy,20,2013-03-23 21:53:00
6:53 PM,68.0,63.0,84,29.84,9.0,ENE,6.9,-,N/A,,Mostly Cloudy,70,2013-03-23 22:53:00
7:53 PM,66.9,64.0,90,29.86,10.0,ENE,9.2,-,N/A,,Mostly Cloudy,60,2013-03-23 23:53:00
8:11 PM,66.2,64.4,94,29.86,8.0,ENE,11.5,-,0.00,Rain-Thunderstorm,Light Thunderstorms and Rain,70,2013-03-24 00:11:00
8:53 PM,66.9,64.0,90,29.89,10.0,ENE,6.9,-,0.00,Rain-Thunderstorm,Light Thunderstorms and Rain,70,2013-03-24 00:53:00
9:53 PM,66.9,64.9,93,29.91,3.0,ESE,3.5,-,0.16,Rain-Thunderstorm,Thunderstorms and Rain,110,2013-03-24 01:53:00
10:11 PM,66.2,64.4,94,29.91,10.0,East,3.5,-,0.00,,Mostly Cloudy,90,2013-03-24 02:11:00
10:53 PM,66.9,64.9,93,29.90,10.0,East,3.5,-,0.00,,Mostly Cloudy,90,2013-03-24 02:53:00
11:53 PM,66.9,64.0,90,29.88,10.0,East,5.8,-,N/A,,Mostly Cloudy,90,2013-03-24 03:53:00